CST,Max TemperatureF,Mean TemperatureF,Min TemperatureF,Max Dew PointF,MeanDew PointF,Min DewpointF,Max Humidity, Mean Humidity, Min Humidity, Max Sea Level PressureIn, Mean Sea Level PressureIn, Min Sea Level PressureIn, Max VisibilityMiles, Mean VisibilityMiles, Min VisibilityMiles, Max Wind SpeedMPH, Mean Wind SpeedMPH, Max Gust SpeedMPH,PrecipitationIn, CloudCover, Events, WindDirDegrees
2013-2-1,66,54,41,39,34,27,70,50,32,30.38,30.30,30.22,10,10,10,12,6,,0.00,0,,111
2013-2-2,70,58,46,51,44,35,87,65,45,30.33,30.25,30.21,10,10,10,13,5,21,0.00,1,,228
2013-2-3,69,52,36,38,32,27,89,46,20,30.34,30.24,30.07,10,10,10,10,4,,0.00,0,,87
2013-2-4,67,60,52,58,50,32,96,75,39,30.06,29.95,29.85,10,10,3,12,6,16,0.02,5,Rain,138
2013-2-5,70,64,58,61,58,56,98,86,65,30.03,29.97,29.91,10,6,1,9,4,,0.00,5,,95
2013-2-6,62,60,58,59,57,55,96,92,87,30.06,30.00,29.93,10,8,3,9,7,,0.09,8,Rain,106
2013-2-7,66,60,55,57,55,50,95,87,72,30.05,29.95,29.90,10,9,2,15,5,20,0.00,5,,176
2013-2-8,64,56,47,49,45,42,86,69,46,30.24,30.17,30.06,10,10,7,15,9,22,0.00,2,,20
2013-2-9,59,51,43,58,48,40,95,91,84,30.18,30.04,29.84,10,7,2,13,6,20,0.01,6,Rain,103
2013-2-10,64,58,53,62,46,31,97,65,29,30.05,29.90,29.78,10,9,1,15,7,23,1.77,5,Rain,251
2013-2-11,56,52,47,46,43,39,93,72,56,30.16,30.08,30.03,10,10,5,14,5,21,0.34,7,Rain,62
2013-2-12,53,48,44,49,46,42,97,90,82,30.02,29.93,29.86,10,8,1,12,6,17,0.07,7,Rain,346
2013-2-13,50,42,34,42,36,34,96,79,59,30.18,30.10,29.99,10,10,5,15,7,22,0.00,5,,307
2013-2-14,64,48,31,39,34,30,97,64,32,30.17,30.11,30.06,10,10,2,8,2,,0.00,0,,156
2013-2-15,53,46,37,38,33,24,83,58,46,30.38,30.27,30.11,10,10,10,16,5,25,0.00,5,,354
2013-2-16,54,41,28,32,26,23,87,58,31,30.45,30.34,30.24,10,10,10,9,4,17,0.00,0,,311
2013-2-17,69,54,40,44,33,25,71,47,24,30.24,30.13,30.02,10,10,10,17,7,25,0.00,1,,160
2013-2-18,75,64,49,60,49,34,79,63,36,30.12,29.94,29.82,10,10,7,22,12,34,0.12,5,Rain,192
2013-2-19,63,52,41,35,28,21,74,43,20,30.33,30.23,30.13,10,10,7,13,6,16,0.00,1,,45
2013-2-20,52,49,46,37,33,31,71,53,44,30.19,30.05,29.82,10,10,10,20,9,25,0.01,8,Rain,88
2013-2-21,70,58,43,58,43,30,96,64,24,29.91,29.77,29.67,10,9,2,17,11,29,0.19,4,Rain,191
2013-2-22,57,48,40,40,35,30,88,63,43,30.10,30.03,29.90,10,10,10,14,7,18,0.00,1,,350
2013-2-23,59,46,32,37,33,28,89,61,39,30.07,30.01,29.95,10,10,10,12,5,,0.00,0,,341
2013-2-24,70,56,42,46,40,33,82,56,32,29.97,29.87,29.71,10,10,10,14,7,18,0.00,2,,105
2013-2-25,65,54,43,57,40,27,94,58,24,29.69,29.61,29.52,10,10,7,29,12,40,0.00,6,Rain,215
2013-2-26,57,47,37,36,33,32,87,60,40,29.94,29.85,29.70,10,10,10,30,14,34,0.00,3,,278
2013-2-27,60,46,33,38,30,20,92,55,25,30.20,30.06,29.91,10,10,10,18,5,28,0.00,0,,328
2013-2-28,56,44,33,31,28,24,77,54,32,30.31,30.24,30.19,10,10,10,15,7,21,0.00,0,,314